LIPXLIMP

Guest
Details From LIPX - Villafranca
To LIMP - Parma
Flight Number -
Tags Routegen Generated
Created
Modified
Stats Distance 42 nm / 77 km
Max Altitude 100 ft / 30 m
Waypoints 5
Social Downloads 2
Likes 0
Share

Download

Looking for another format? Having issues loading an existing format? Contact us
Advertisement - Login to hide

Notes

Departing runway 22 LIPX. Arriving runway 1 LIMP.

Route

LIPX +45.34_+010.80 +45.16_+010.58 +44.97_+010.36 LIMP

ID Type Via Altitude (ft/m) Position (lat/lon) Dist (leg/tot) Name
O LIPX APT - 100 / 30 45.38732 / 10.87633 - / 0 nm
+45.34_+010.80 DME - 100 / 30 45.33685 / 10.80251 4 / 4 nm
+45.16_+010.58 DME - 100 / 30 45.15549 / 10.58205 14 / 18 nm
+44.97_+010.36 DME - 100 / 30 44.97413 / 10.36159 14 / 33 nm
O LIMP APT - 0 / 0 44.83589 / 10.30109 8 / 41 nm

Altitude Profile

Advertisement - Login to hide

LIPX

Details ICAO LIPX (VRN)
Name Verona-Villafranca "Valerio Catullo"
Region Italy
Timezone Europe/Rome (UTC+2.0)
Stats Elevation 236 ft / 72 m (AMSL)
Location 45.397000° 10.890300°
Runways 1
Magnetic Variation 3.152° E

METAR

LIPX 041020Z 12006KT 070V150 CAVOK 27/14 Q1018

Decode

TAF

Not found

Departure Runways

ID Width Length Bearing (true/mag) Surface Threshold Overrun Markings Lighting
04 148 ft / 45 m 10,074 ft / 3,071 m 45.59° / 42.44° ASPHALT 194 ft / 59 m 797 ft / 243 m PREC-APP CENTERLINE EDGE THRESHOLD ALSF-II TDZ REIL-OMNI
22 148 ft / 45 m 10,074 ft / 3,071 m 225.61° / 222.46° ASPHALT 1,339 ft / 408 m 184 ft / 56 m PREC-APP CENTERLINE EDGE THRESHOLD SALS REIL-OMNI

LIMP

Details ICAO LIMP (PMF)
Name Parma "Giuseppe Verdi"
Region Italy
Timezone Europe/Rome (UTC+2.0)
Stats Elevation 161 ft / 49 m (AMSL)
Location 44.826800° 10.297100°
Runways 1
Magnetic Variation 3.004° E

METAR

LIMP 040850Z 27004KT 210V320 9999 FEW030 23/18 Q1018

Decode

TAF

TAF LIMP 040500Z 0406/0506 VRB05KT 9999 SCT040 BECMG 0408/0410 05010KT BECMG 0416/0418 VRB05KT

Decode

Destination Runways

ID Width Length Bearing (true/mag) Surface Threshold Overrun Markings Lighting
02 148 ft / 45 m 6,975 ft / 2,126 m 17.32° / 14.32° ASPHALT 689 ft / 210 m 394 ft / 120 m PREC-APP EDGE THRESHOLD REIL-OMNI
20 148 ft / 45 m 6,975 ft / 2,126 m 197.33° / 194.32° ASPHALT 597 ft / 182 m 197 ft / 60 m PREC-APP EDGE THRESHOLD MALSF REIL-OMNI

Approach Navaids

Runway Type Ident Frequency Range Bearing (true/mag) Slope Elevation
20 LOC-ILS IPR 110.50 MHz 18 nm / 33 km 197.37° / 194.37 ° - 163 ft / 50 m (AMSL)
20 GS IPR 110.50 MHz 10 nm / 19 km 197.40° / 194.39 ° 3.00° 145 ft / 44 m (AMSL)
20 OM OM - - 197.20° / 194.19 ° - 161 ft / 49 m (AMSL)
20 DME IPR 110.50 MHz 18 nm / 33 km - - 163 ft / 50 m (AMSL)

Popular Alternatives